HK6RM-17 Weather Reports


time (UTC)temp
C
wind
direction
speed
KPH
gust
KPH
rain 1hr
cm
rain 24hr
cm
rain mn
cm
humidity
%
barometer
mb
20260503072940 15 110 3.2 0.0 0.00 0.00 0.00 10 1017.0
20260503071939 15 110 3.2 0.0 0.00 0.00 0.00 10 1017.0
20260503070938 15 110 3.2 0.0 0.00 0.00 0.00 10 1017.0
20260503054929 15 0 1.6 0.0 0.00 0.00 0.00 10 1018.0
20260503053928 15 0 1.6 0.0 0.00 0.00 0.00 10 1018.0
20260503052919 15 0 1.6 0.0 0.00 0.00 0.00 10 1018.0
20260503051915 15 0 1.6 0.0 0.00 0.00 0.00 10 1018.0
20260503050909 15 0 1.6 0.0 0.00 0.00 0.00 10 1018.0
20260503045908 15 0 3.2 0.0 0.00 0.00 0.00 10 1018.0
20260503044907 15 0 3.2 0.0 0.00 0.00 0.00 10 1018.0
20260503043906 15 0 3.2 0.0 0.00 0.00 0.00 10 1019.0
20260503042904 15 0 3.2 0.0 0.00 0.00 0.00 10 1019.0
20260503041903 15 0 3.2 0.0 0.00 0.00 0.00 10 1019.0
20260503040903 15 0 3.2 0.0 0.00 0.00 0.00 10 1019.0
20260503035901 15 0 3.2 0.0 0.00 0.00 0.00 10 1019.0
20260503034900 15 0 3.2 0.0 0.00 0.00 0.00 10 1019.0
20260503033900 15 0 3.2 0.0 0.00 0.00 0.00 10 1019.0
20260503032858 12 42 1.6 1.6 0.00 0.00 0.00 93 1018.0
20260503031857 12 42 1.6 1.6 0.00 0.00 0.00 93 1018.0
20260503030856 12 42 1.6 1.6 0.00 0.00 0.00 93 1018.0
20260503025853 12 42 1.6 1.6 0.00 0.00 0.00 93 1018.0
20260503024851 12 44 1.6 1.6 0.00 0.00 0.00 93 1018.0
20260503023847 12 68 1.6 6.4 0.00 0.00 0.00 93 1018.0
20260503022847 12 68 1.6 6.4 0.00 0.00 0.00 93 1017.0
20260503021844 12 68 1.6 6.4 0.00 0.00 0.00 93 1017.0
20260503020843 12 68 1.6 6.4 0.00 0.00 0.00 93 1017.0
20260503015841 12 68 1.6 6.4 0.00 0.00 0.00 93 1017.0
20260503014839 12 68 1.6 6.4 0.00 0.00 0.00 93 1017.0
20260503013837 12 68 1.6 6.4 0.00 0.00 0.00 93 1017.0
20260503012837 12 68 1.6 6.4 0.00 0.00 0.00 93 1017.0
20260503011836 12 68 1.6 6.4 0.00 0.00 0.00 93 1017.0
20260503010834 12 68 1.6 6.4 0.00 0.00 0.00 94 1017.0
20260503005832 12 68 1.6 6.4 0.00 0.00 0.00 94 1017.0
20260503004830 12 290 12.9 0.0 0.00 0.00 0.00 94 1017.0
20260503003830 12 290 12.9 0.0 0.00 0.00 0.00 94 1016.0
20260503002829 12 290 12.9 0.0 0.00 0.00 0.00 94 1015.0
20260503001827 12 290 12.9 0.0 0.00 0.00 0.00 94 1015.0
20260503000824 12 290 12.9 0.0 0.00 0.00 0.00 94 1015.0
20260502235822 12 290 12.9 0.0 0.00 0.00 0.00 94 1015.0
20260502234821 12 290 12.9 0.0 0.00 0.00 0.00 93 1015.0
20260502233818 12 290 12.9 0.0 0.00 0.00 0.00 93 1015.0
20260502232818 12 290 12.9 0.0 0.00 0.00 0.00 94 1015.0
20260502231817 12 290 12.9 0.0 0.00 0.00 0.00 94 1015.0
20260502230816 12 290 12.9 0.0 0.00 0.00 0.00 94 1015.0
20260502225816 12 290 12.9 0.0 0.00 0.00 0.00 94 1015.0
20260502224814 13 290 12.9 0.0 0.00 0.00 0.00 94 1015.0
20260502223814 13 290 12.9 0.0 0.00 0.00 0.00 94 1015.0
20260502222813 13 290 12.9 0.0 0.00 0.00 0.00 94 1014.0
20260502221812 13 290 12.9 0.0 0.00 0.00 0.00 94 1014.0
20260502220810 13 290 12.9 0.0 0.00 0.00 0.00 94 1014.0
20260502215809 13 290 12.9 0.0 0.00 0.00 0.00 94 1014.0
20260502214808 13 290 12.9 0.0 0.00 0.00 0.00 94 1014.0
20260502213808 14 290 12.9 0.0 0.00 0.00 0.00 94 1014.0
20260502212808 14 290 12.9 0.0 0.00 0.00 0.00 93 1014.0
20260502211807 14 290 12.9 0.0 0.00 0.00 0.00 94 1014.0
20260502210807 14 290 12.9 0.0 0.00 0.00 0.00 94 1014.0
20260502205805 15 290 12.9 0.0 0.00 0.00 0.00 94 1014.0
20260502204755 15 290 12.9 0.0 0.00 0.00 0.00 93 1014.0
20260502203754 15 290 12.9 0.0 0.00 0.00 0.00 89 1014.0
20260502202754 15 290 12.9 0.0 0.00 0.00 0.00 89 1014.0
20260502201752 15 290 12.9 0.0 0.00 0.00 0.00 89 1014.0
20260502200748 15 290 12.9 0.0 0.00 0.00 0.00 90 1014.0
20260502195746 15 290 12.9 0.0 0.00 0.00 0.00 86 1014.0
20260502194744 15 290 12.9 0.0 0.00 0.00 0.00 85 1014.0
20260502193742 15 290 12.9 0.0 0.00 0.00 0.00 84 1014.0
20260502192741 15 290 12.9 0.0 0.00 0.00 0.00 82 1014.0
20260502191741 15 290 12.9 0.0 0.00 0.00 0.00 82 1014.0
20260502190739 15 290 12.9 0.0 0.00 0.00 0.00 82 1014.0
20260502185739 15 290 12.9 0.0 0.00 0.00 0.00 82 1014.0
20260502184738 15 290 12.9 0.0 0.00 0.00 0.00 81 1014.0
20260502183738 15 290 12.9 0.0 0.00 0.00 0.00 81 1014.0
20260502182737 15 290 12.9 0.0 0.00 0.00 0.00 81 1015.0
20260502181734 15 290 12.9 0.0 0.00 0.00 0.00 81 1015.0
20260502180733 15 290 12.9 0.0 0.00 0.00 0.00 81 1015.0
20260502163726 18 290 14.5 0.0 0.00 0.00 0.00 81 1016.0
20260502162725 15 274 1.6 1.6 0.00 0.00 0.00 77 1016.0
20260502161724 16 274 1.6 1.6 0.00 0.00 0.00 78 1016.0
20260502160723 15 276 1.6 1.6 0.00 0.00 0.00 78 1016.0
20260502151721 16 0 1.6 0.0 0.00 0.00 0.00 77 1016.0
20260502150719 16 0 1.6 0.0 0.00 0.00 0.00 77 1016.0
20260502130706 15 110 4.8 0.0 0.00 0.00 0.00 87 1016.0
20260502123701 15 110 4.8 0.0 0.00 0.00 0.00 87 1016.0
20260502122701 15 110 4.8 0.0 0.00 0.00 0.00 87 1016.0
20260502121658 15 110 4.8 0.0 0.00 0.00 0.00 87 1016.0
20260502120656 15 110 4.8 0.0 0.00 0.00 0.00 87 1016.0
20260502115655 15 120 4.8 0.0 0.00 0.00 0.00 87 1016.0
20260502114654 15 120 4.8 0.0 0.00 0.00 0.00 86 1016.0
20260502113653 15 120 4.8 0.0 0.00 0.00 0.00 86 1016.0
20260502112653 15 120 4.8 0.0 0.00 0.00 0.00 86 1016.0
20260502111652 15 120 4.8 0.0 0.00 0.00 0.00 85 1016.0
20260502110651 15 120 4.8 0.0 0.00 0.00 0.00 85 1016.0
20260502105650 15 120 4.8 0.0 0.00 0.00 0.00 84 1016.0
20260502104649 15 120 4.8 0.0 0.00 0.00 0.00 83 1016.0
20260502103649 16 120 4.8 0.0 0.00 0.00 0.00 82 1016.0
20260502102648 16 120 4.8 0.0 0.00 0.00 0.00 82 1016.0
20260502101648 16 120 4.8 0.0 0.00 0.00 0.00 82 1016.0
20260502100647 16 120 4.8 0.0 0.00 0.00 0.00 82 1016.0
20260502090639 11 110 6.4 4.8 0.00 0.00 0.00 83 1016.0